Wind_Speed
13 13 12 11 10 9 7 5 4 2 2 3 5 7 9 11 13 15 17 19 20 22 23 24 24 24 25 25 26 26 26 26 26 26 26 26 26 25
13 12 11 11 10 9 8 7 5 4 4 4 5 6 8 10 12 14 16 18 20 22 23 24 25 25 26 26 27 28 28 28 28 28 28 28 28 28
12 12 11 11 10 10 9 8 7 6 5 6 7 7 8 10 12 13 15 17 19 21 23 24 26 26 26 27 28 29 29 30 30 30 30 30 30 30
12 12 11 11 11 11 10 9 9 9 8 8 8 9 10 11 12 13 14 16 18 21 23 24 26 27 27 28 28 30 30 31 32 32 32 32 32 32
12 12 11 11 12 12 12 12 11 11 11 10 11 11 12 13 14 15 16 17 18 20 22 23 25 27 27 28 29 30 31 31 32 33 34 34 34 34
12 12 12 13 13 13 14 14 14 14 14 13 13 14 15 16 16 17 18 19 20 21 22 23 25 26 28 28 29 30 30 31 32 33 34 35 35 35
14 14 14 15 16 16 16 17 17 17 17 17 17 17 18 18 19 19 20 21 22 23 24 25 26 27 29 29 30 31 31 31 33 34 34 35 36 36
17 17 17 18 18 19 19 20 20 21 21 21 21 21 21 22 22 23 23 24 24 25 26 27 28 29 30 31 31 32 32 33 34 34 34 35 36 36
20 20 21 22 22 23 23 24 24 24 24 24 25 25 25 26 26 26 27 27 27 28 29 29 31 32 32 33 34 34 34 34 35 36 37 37 38 38
23 23 24 25 26 26 27 27 27 27 27 27 28 28 29 30 29 29 30 30 30 31 32 32 33 34 35 35 36 36 36 37 37 38 38 39 40 41
26 27 28 28 29 30 30 29 29 29 30 30 30 30 30 30 31 32 32 33 33 34 34 35 35 37 38 38 39 39 38 38 39 40 41 41 41 42
29 30 31 31 31 32 32 32 32 33 33 33 33 32 32 32 33 34 35 36 36 36 37 38 38 39 40 40 41 41 41 41 41 42 42 43 43 44
32 33 33 34 33 34 34 34 35 35 35 35 34 34 34 34 35 36 37 38 38 39 39 40 41 41 42 43 43 44 43 44 44 44 45 45 46 46
34 35 36 36 35 35 36 37 37 37 37 37 37 37 37 37 37 38 39 41 41 42 42 42 43 43 44 45 45 46 47 47 48 48 48 48 49 48
36 37 37 37 37 37 38 39 39 39 39 39 39 39 40 40 40 41 42 43 44 45 45 46 47 47 48 48 48 49 50 51 51 52 52 51 51 51
38 39 39 38 39 39 40 40 41 41 42 42 42 42 42 42 43 44 46 47 47 48 50 51 51 51 52 52 52 53 53 54 55 55 55 55 55 54
41 41 41 41 41 41 42 42 43 43 43 43 44 44 45 45 46 48 49 50 51 52 54 55 55 55 55 55 55 55 56 57 58 59 59 59 58 58
42 42 42 43 43 44 44 44 45 45 46 46 47 48 49 50 51 52 53 53 54 56 56 57 58 58 58 58 58 58 59 59 59 60 60 60 60 59
44 44 45 45 46 46 47 47 47 48 49 50 51 52 53 54 55 55 56 56 57 58 59 60 60 61 61 60 59 59 60 59 60 60 60 60 60 59
46 46 47 47 48 49 49 49 50 51 53 54 55 56 57 57 57 57 58 58 59 59 60 60 60 60 60 60 59 58 58 58 58 59 58 59 59 58
48 49 49 50 51 51 52 53 54 55 56 57 58 59 59 59 59 60 60 60 60 60 59 58 58 59 59 59 59 57 57 57 57 57 57 57 57 56
51 51 52 52 53 54 55 56 57 58 59 60 61 61 61 61 61 61 61 61 60 59 58 57 56 56 56 56 57 57 56 56 55 55 55 55 55 54
53 53 54 55 56 57 58 59 61 62 62 63 63 62 62 62 62 61 61 59 58 57 56 56 55 54 54 53 53 53 54 54 53 52 51 52 53 53
Wind_Direction
40 40 40 39 37 35 32 30 27 13 327 268 250 246 244 240 239 239 239 238 237 238 239 241 242 240 240 237 235 235 236 237 237 237 238 239 239 240
32 32 32 31 28 26 22 17 5 347 321 298 275 259 253 249 246 244 244 244 243 244 244 244 245 244 241 239 239 239 239 240 241 240 241 241 241 241
23 22 21 20 18 16 13 8 359 344 323 307 293 276 265 260 256 253 252 250 248 248 247 246 246 245 244 244 243 243 242 242 242 242 242 243 242 242
10 10 9 7 4 0 357 351 345 337 324 311 300 290 280 271 263 261 260 259 256 254 252 251 250 248 248 248 247 247 247 246 245 245 245 245 244 244
359 359 358 356 354 349 345 341 334 328 320 308 296 290 285 279 271 268 266 264 261 259 257 254 253 251 250 248 249 250 250 249 248 247 246 246 247 247
346 344 343 341 339 337 333 329 325 320 315 309 300 292 286 282 276 271 269 268 266 263 261 257 256 256 255 253 252 252 251 250 250 249 248 248 248 248
334 331 329 328 325 324 323 320 317 313 309 304 300 294 288 284 279 275 273 272 270 267 265 262 259 259 257 257 257 257 255 252 252 251 251 250 250 249
324 323 321 321 319 317 315 314 312 308 305 302 298 293 287 283 279 276 274 273 272 269 267 264 262 260 259 258 258 257 257 256 256 255 254 253 250 249
317 317 316 315 314 313 312 310 308 306 304 301 297 292 287 282 280 276 273 272 272 271 269 267 264 263 261 260 260 259 259 258 258 257 256 255 253 251
310 311 312 312 310 309 309 307 306 304 303 301 297 292 287 283 279 276 273 272 272 272 270 269 267 265 263 262 262 262 261 260 259 258 257 256 255 252
307 308 308 309 308 307 307 305 305 303 301 299 296 292 288 284 279 276 274 273 274 274 273 271 269 267 265 265 264 263 262 262 260 259 258 257 256 255
304 305 306 307 306 306 305 303 302 302 301 298 295 291 287 285 281 278 276 275 275 275 274 273 270 269 267 267 266 263 263 262 261 260 258 257 256 256
303 303 304 305 304 304 304 302 301 301 300 298 295 292 289 286 283 280 279 278 277 277 276 274 272 270 269 269 267 265 265 264 263 261 260 258 257 257
302 302 303 302 302 302 302 301 300 299 299 297 294 292 290 287 284 281 281 280 279 279 278 277 275 273 271 270 268 267 266 265 264 262 261 259 258 258
301 301 302 301 300 300 300 300 299 298 297 296 295 293 291 287 285 282 282 280 279 278 279 278 277 276 274 273 270 269 268 267 266 263 262 260 258 258
301 301 301 301 299 299 299 299 299 298 297 296 295 293 291 288 286 284 283 281 280 279 279 279 278 277 276 274 273 271 270 269 267 265 263 261 259 258
300 301 301 301 300 299 299 300 300 299 298 297 296 293 292 289 287 285 284 283 282 281 280 279 278 278 277 276 275 273 271 270 267 266 264 262 261 260
299 300 300 301 300 300 299 299 299 298 298 297 296 294 293 291 290 288 286 285 284 283 281 280 279 278 277 276 275 274 273 271 268 266 264 262 260 258
298 298 299 299 300 299 299 299 299 299 298 297 297 296 294 293 292 290 288 287 286 284 282 281 280 279 277 276 275 274 273 271 269 266 263 261 260 259
297 298 298 298 299 299 298 298 298 299 299 299 298 298 297 294 293 291 290 289 287 285 284 282 281 279 278 276 275 273 272 271 269 266 263 260 259 258
297 298 298 298 298 298 298 299 299 299 299 298 298 298 297 295 293 292 290 289 288 286 285 283 282 280 278 277 275 273 271 270 269 266 263 260 259 256
297 297 298 298 298 299 299 299 299 299 299 299 298 297 296 295 292 291 290 289 287 286 284 283 282 281 279 277 276 274 271 269 267 265 262 260 258 256
297 297 298 299 299 299 299 299 299 299 299 298 297 296 295 294 292 291 290 289 288 286 284 283 282 280 279 278 277 274 271 268 265 262 260 259 257 255
Height
5853 5851 5850 5848 5847 5846 5846 5845 5845 5845 5845 5845 5845 5846 5846 5847 5848 5850 5851 5853 5854 5856 5858 5859 5861 5863 5864 5866 5869 5871 5873 5875 5877 5879 5881 5883 5886 5888
5854 5853 5851 5850 5848 5847 5846 5845 5845 5845 5844 5844 5844 5844 5845 5845 5846 5847 5848 5849 5851 5852 5853 5855 5856 5858 5859 5861 5863 5866 5868 5869 5871 5874 5876 5878 5880 5882
5855 5853 5852 5850 5849 5848 5846 5845 5845 5844 5843 5843 5843 5843 5843 5843 5843 5844 5844 5845 5846 5848 5849 5850 5851 5853 5854 5856 5858 5859 5861 5863 5865 5867 5869 5871 5874 5876
5855 5854 5852 5850 5849 5848 5846 5845 5844 5842 5842 5841 5840 5840 5840 5840 5840 5840 5841 5841 5842 5843 5844 5845 5846 5847 5848 5850 5851 5853 5855 5856 5858 5860 5862 5864 5866 5868
5855 5853 5851 5850 5848 5847 5845 5843 5842 5840 5839 5838 5838 5837 5837 5836 5836 5836 5836 5836 5837 5837 5838 5839 5840 5841 5842 5843 5845 5846 5848 5849 5851 5853 5855 5856 5858 5860
5854 5852 5850 5848 5847 5845 5843 5841 5839 5837 5836 5835 5834 5833 5832 5832 5832 5832 5832 5831 5832 5832 5832 5833 5834 5834 5835 5836 5838 5839 5840 5841 5843 5845 5846 5848 5850 5852
5852 5850 5848 5846 5844 5842 5840 5837 5835 5833 5832 5830 5829 5828 5827 5826 5826 5826 5825 5825 5825 5825 5826 5826 5827 5827 5828 5829 5830 5831 5832 5833 5835 5836 5838 5840 5841 5843
5849 5847 5845 5843 5840 5838 5835 5832 5830 5827 5825 5823 5822 5821 5820 5819 5818 5818 5818 5818 5818 5818 5818 5818 5819 5819 5820 5821 5822 5823 5824 5825 5826 5827 5829 5830 5832 5834
5845 5843 5840 5838 5835 5832 5829 5826 5823 5820 5817 5815 5814 5812 5811 5810 5810 5809 5809 5809 5809 5809 5809 5810 5810 5810 5811 5812 5813 5813 5814 5815 5817 5818 5819 5821 5822 5824
5840 5837 5835 5832 5829 5826 5823 5819 5815 5812 5809 5807 5804 5803 5801 5800 5800 5799 5799 5799 5799 5799 5799 5800 5799 5800 5801 5801 5802 5803 5804 5805 5806 5807 5808 5810 5811 5813
5834 5831 5828 5825 5822 5818 5815 5811 5807 5804 5800 5797 5795 5793 5791 5790 5789 5789 5789 5789 5789 5789 5788 5788 5788 5788 5789 5790 5790 5791 5792 5793 5794 5795 5797 5798 5800 5801
5827 5824 5821 5817 5814 5810 5806 5802 5798 5795 5791 5788 5785 5783 5781 5780 5779 5778 5777 5777 5777 5777 5777 5776 5776 5775 5777 5778 5778 5778 5779 5780 5781 5782 5784 5786 5787 5788
5819 5816 5813 5809 5805 5801 5797 5793 5789 5785 5781 5778 5775 5773 5771 5769 5767 5766 5765 5765 5764 5764 5764 5763 5762 5762 5762 5763 5764 5765 5765 5766 5767 5768 5770 5772 5773 5775
5810 5807 5804 5800 5796 5792 5788 5783 5779 5775 5772 5768 5765 5763 5760 5758 5756 5755 5753 5752 5751 5750 5749 5748 5748 5748 5748 5748 5750 5750 5750 5751 5752 5753 5755 5756 5758 5760
5801 5798 5794 5790 5786 5782 5778 5774 5769 5765 5762 5758 5755 5752 5749 5746 5744 5743 5741 5739 5738 5736 5734 5733 5732 5732 5732 5732 5733 5734 5734 5735 5735 5736 5737 5739 5742 5744
5792 5788 5784 5780 5776 5772 5768 5763 5759 5754 5750 5747 5743 5740 5737 5734 5732 5729 5727 5725 5723 5722 5719 5717 5715 5714 5714 5714 5714 5715 5716 5716 5717 5717 5719 5721 5723 5726
5781 5778 5774 5770 5766 5761 5757 5753 5748 5744 5739 5735 5731 5728 5725 5722 5719 5715 5712 5710 5707 5705 5703 5700 5697 5696 5695 5695 5695 5695 5695 5696 5697 5698 5699 5701 5704 5707
5770 5766 5762 5758 5754 5750 5745 5741 5737 5732 5728 5724 5720 5715 5712 5708 5704 5700 5696 5693 5690 5687 5684 5681 5679 5677 5676 5676 5675 5674 5675 5675 5676 5677 5678 5680 5683 5687
5758 5754 5750 5746 5742 5737 5733 5729 5724 5719 5715 5710 5706 5701 5696 5692 5688 5683 5679 5675 5672 5668 5665 5662 5658 5656 5655 5656 5656 5653 5652 5653 5653 5655 5656 5658 5662 5666
5745 5741 5737 5733 5728 5724 5719 5715 5710 5705 5700 5695 5690 5685 5679 5674 5669 5665 5660 5656 5652 5648 5645 5642 5638 5635 5633 5633 5634 5635 5631 5630 5631 5633 5635 5637 5641 5644
5731 5727 5723 5719 5714 5709 5705 5700 5695 5689 5684 5679 5673 5667 5661 5655 5650 5645 5640 5636 5631 5628 5625 5622 5618 5615 5612 5611 5612 5614 5613 5611 5610 5612 5614 5617 5620 5624
5717 5713 5708 5704 5699 5694 5689 5684 5678 5672 5667 5661 5655 5649 5642 5636 5631 5626 5621 5616 5611 5607 5604 5602 5598 5595 5593 5591 5591 5592 5593 5592 5592 5592 5594 5597 5600 5605
5702 5697 5693 5687 5682 5677 5672 5666 5660 5654 5648 5641 5635 5629 5623 5617 5611 5606 5601 5596 5592 5588 5585 5582 5579 5576 5574 5572 5571 5571 5572 5572 5573 5575 5578 5579 5582 5586